Auburn, CA

2:30 AM PST on January 20, 2018 (GMT -0800)
Auburn Municipal

Weather History for KAUN - September, 2012

Change the Weather History Date:

Sunday, September 2, 2012

  Actual Average Record
Temperature  
Mean Temperature 70 °F -  
Max Temperature 87 °F 90 °F 107 °F (1950)
Min Temperature 53 °F 61 °F 41 °F (1954)
Cooling Degree Days 5    
Growing Degree Days 20 (Base 50)    
Moisture  
Dew Point 42 °F    
Average Humidity 37    
Maximum Humidity 67    
Minimum Humidity 18    
Precipitation  
Precipitation 0.00 in - - ()
Sea Level Pressure  
Sea Level Pressure 29.97 in    
Wind  
Wind Speed 2 mph (SW)    
Max Wind Speed 8 mph    
Max Gust Speed -    
Visibility 10 miles    
Events      
Averages and records for this station are not official NWS values.
T = Trace of Precipitation, MM = Missing Value Source: NWS Daily Summary

Daily Weather History Graph

Daily Weather History Graph

Search for Another Location

Airport or City:

Trip Planner

Search our weather history database for the weather conditions in past years. The results will help you decide how hot, cold, wet, or windy it might be!

Date:

Astronomy

Sep. 02, 2012 Rise Set
Actual Time 6:34 AM PDT 7:32 PM PDT
Civil Twilight 6:07 AM PDT 7:59 PM PDT
Nautical Twilight 5:34 AM PDT 8:31 PM PDT
Astronomical Twilight 5:01 AM PDT 9:05 PM PDT
Moon 8:24 PM PDT (9/2) 8:46 AM PDT (9/2)
Length of Visible Light 13h 52m
Length of Day
12h 57m
Waning Gibbous, 95% of the Moon is Illuminated
Sep 2
Waning Gibbous
Sep 8
Last Quarter
Sep 15
New
Sep 22
First Quarter
Sep 29
Full

Hourly Weather History & Observations

Time (PDT) Temp. Dew Point Humidity Pressure Visibility Wind Dir Wind Speed Gust Speed Precip Events Conditions
12:15 AM 60.8 °F 44.6 °F 55% 29.99 in 10.0 mi Calm Calm - N/A   Clear
12:55 AM 57.2 °F 42.8 °F 59% 30.00 in 10.0 mi Calm Calm - N/A   Clear
1:15 AM 59.0 °F 44.6 °F 59% 30.00 in 10.0 mi Calm Calm - N/A   Clear
1:35 AM 60.8 °F 44.6 °F 55% 29.99 in 10.0 mi Calm Calm - N/A   Clear
1:55 AM 57.2 °F 44.6 °F 63% 29.99 in 10.0 mi Calm Calm - N/A   Clear
2:15 AM 59.0 °F 46.4 °F 63% 29.99 in 10.0 mi Calm Calm - N/A   Clear
2:35 AM 55.4 °F 44.6 °F 67% 29.99 in 10.0 mi Calm Calm - N/A   Clear
2:55 AM 53.6 °F 42.8 °F 67% 29.99 in 10.0 mi Calm Calm - N/A   Clear
3:15 AM 60.8 °F 42.8 °F 52% 29.99 in 10.0 mi Calm Calm - N/A   Clear
3:35 AM 59.0 °F 42.8 °F 55% 29.99 in 10.0 mi Calm Calm - N/A   Clear
3:55 AM 55.4 °F 41.0 °F 58% 29.98 in 10.0 mi Calm Calm - N/A   Clear
4:15 AM 57.2 °F 42.8 °F 59% 29.98 in 10.0 mi East 4.6 mph - N/A   Clear
4:35 AM 60.8 °F 41.0 °F 48% 29.98 in 10.0 mi Calm Calm - N/A   Clear
4:55 AM 60.8 °F 41.0 °F 48% 29.98 in 10.0 mi East 6.9 mph - N/A   Clear
5:15 AM 60.8 °F 41.0 °F 48% 29.98 in 10.0 mi East 5.8 mph - N/A   Clear
5:35 AM 62.6 °F 41.0 °F 45% 29.98 in 10.0 mi ESE 3.5 mph - N/A   Clear
5:55 AM 60.8 °F 41.0 °F 48% 29.98 in 10.0 mi East 3.5 mph - N/A   Clear
6:15 AM 60.8 °F 41.0 °F 48% 29.98 in 10.0 mi Calm Calm - N/A   Clear
6:35 AM 62.6 °F 41.0 °F 45% 29.98 in 10.0 mi Calm Calm - N/A   Clear
6:55 AM 60.8 °F 41.0 °F 48% 29.98 in 10.0 mi Calm Calm - N/A   Clear
7:15 AM 62.6 °F 41.0 °F 45% 29.98 in 10.0 mi East 5.8 mph - N/A   Clear
7:35 AM 64.4 °F 41.0 °F 42% 29.98 in 10.0 mi East 4.6 mph - N/A   Clear
7:55 AM 66.2 °F 42.8 °F 43% 29.99 in 10.0 mi East 5.8 mph - N/A   Clear
8:15 AM 69.8 °F 42.8 °F 38% 29.99 in 10.0 mi ESE 4.6 mph - N/A   Clear
8:35 AM 69.8 °F 42.8 °F 38% 29.99 in 10.0 mi Calm Calm - N/A   Clear
8:55 AM 71.6 °F 44.6 °F 38% 29.99 in 10.0 mi Calm Calm - N/A   Clear
9:15 AM 73.4 °F 42.8 °F 33% 30.00 in 10.0 mi Calm Calm - N/A   Clear
9:55 AM 75.2 °F 42.8 °F 31% 30.00 in 10.0 mi Calm Calm - N/A   Clear
10:15 AM 78.8 °F 41.0 °F 26% 30.00 in 10.0 mi West 4.6 mph - N/A   Clear
10:35 AM 78.8 °F 42.8 °F 28% 30.00 in 10.0 mi Calm Calm - N/A   Clear
10:55 AM 78.8 °F 44.6 °F 30% 30.00 in 10.0 mi SW 5.8 mph - N/A   Clear
11:15 AM 80.6 °F 42.8 °F 26% 30.00 in 10.0 mi Calm Calm - N/A   Clear
11:35 AM 80.6 °F 44.6 °F 28% 30.00 in 10.0 mi West 4.6 mph - N/A   Clear
11:55 AM 80.6 °F 46.4 °F 30% 30.00 in 10.0 mi West 5.8 mph - N/A   Clear
12:15 PM 82.4 °F 46.4 °F 28% 30.00 in 10.0 mi SW 5.8 mph - N/A   Clear
12:35 PM 82.4 °F 46.4 °F 28% 29.99 in 10.0 mi West 5.8 mph - N/A   Clear
12:55 PM 82.4 °F 46.4 °F 28% 29.99 in 10.0 mi Calm Calm - N/A   Clear
1:15 PM 84.2 °F 44.6 °F 25% 29.99 in 10.0 mi WSW 6.9 mph - N/A   Clear
1:55 PM 84.2 °F 44.6 °F 25% 29.98 in 10.0 mi SW 5.8 mph - N/A   Clear
2:15 PM 84.2 °F 46.4 °F 27% 29.98 in 10.0 mi WSW 8.1 mph - N/A   Clear
2:35 PM 84.2 °F 46.4 °F 27% 29.98 in 10.0 mi West 8.1 mph - N/A   Clear
2:55 PM 86.0 °F 44.6 °F 23% 29.97 in 10.0 mi West 6.9 mph - N/A   Clear
3:15 PM 84.2 °F 46.4 °F 27% 29.96 in 10.0 mi West 6.9 mph - N/A   Clear
3:35 PM 86.0 °F 44.6 °F 23% 29.96 in 10.0 mi West 6.9 mph - N/A   Clear
3:55 PM 86.0 °F 46.4 °F 25% 29.95 in 10.0 mi SSW 6.9 mph - N/A   Clear
4:15 PM 87.8 °F 44.6 °F 22% 29.95 in 9.0 mi SW 8.1 mph - N/A   Clear
4:35 PM 87.8 °F 41.0 °F 19% 29.95 in 8.0 mi WSW 6.9 mph - N/A   Clear
4:55 PM 87.8 °F 39.2 °F 18% 29.95 in 8.0 mi West 5.8 mph - N/A   Clear
5:15 PM 86.0 °F 42.8 °F 22% 29.95 in 9.0 mi WSW 5.8 mph - N/A   Clear
5:35 PM 86.0 °F 39.2 °F 19% 29.95 in 8.0 mi West 4.6 mph - N/A   Clear
5:55 PM 86.0 °F 39.2 °F 19% 29.94 in 8.0 mi Calm Calm - N/A   Clear
6:15 PM 84.2 °F 39.2 °F 20% 29.94 in 8.0 mi Calm Calm - N/A   Clear
6:35 PM 84.2 °F 39.2 °F 20% 29.94 in 8.0 mi Calm Calm - N/A   Clear
6:55 PM 82.4 °F 39.2 °F 21% 29.93 in 8.0 mi Calm Calm - N/A   Clear
7:15 PM 82.4 °F 39.2 °F 21% 29.93 in 7.0 mi Calm Calm - N/A   Clear
7:35 PM 77.0 °F 39.2 °F 26% 29.93 in 7.0 mi Calm Calm - N/A   Clear
7:55 PM 71.6 °F 39.2 °F 31% 29.93 in 8.0 mi Calm Calm - N/A   Clear
8:15 PM 69.8 °F 39.2 °F 33% 29.94 in 9.0 mi Calm Calm - N/A   Clear
8:35 PM 69.8 °F 39.2 °F 33% 29.94 in 8.0 mi Calm Calm - N/A   Clear
8:55 PM 66.2 °F 37.4 °F 35% 29.94 in 9.0 mi Calm Calm - N/A   Clear
9:35 PM 66.2 °F 37.4 °F 35% 29.95 in 9.0 mi Calm Calm - N/A   Clear
9:55 PM 69.8 °F 39.2 °F 33% 29.95 in 8.0 mi Calm Calm - N/A   Clear
10:35 PM 69.8 °F 39.2 °F 33% 29.95 in 9.0 mi East 3.5 mph - N/A   Clear
10:55 PM 71.6 °F 42.8 °F 35% 29.95 in 10.0 mi Calm Calm - N/A   Clear
11:15 PM 71.6 °F 42.8 °F 35% 29.96 in 10.0 mi Calm Calm - N/A   Clear
11:35 PM 69.8 °F 42.8 °F 38% 29.96 in 10.0 mi Calm Calm - N/A   Clear
11:55 PM 71.6 °F 42.8 °F 35% 29.96 in 10.0 mi Calm Calm - N/A   Clear